Location: Unspecified
(0.0000°N, 0.0000°E)
Time: 04:03:52
(UTC+00:00)

ISS - Pass Details

Date: 20 March 2018
Orbit: 402 x 408 km, 51.6° (Epoch: 19 July)

Event Time Altitude Azimuth Distance (km) Brightness Sun altitude
Rises 18:33:09 0° 213° (SSW) 2,332 0.5 -6.4°
Reaches altitude 10° 18:35:14 10° 212° (SSW) 1,472 -0.5 -7.0°
Maximum altitude 18:38:31 77° 127° (SE) 424 -3.9 -7.8°
Drops below altitude 10° 18:41:50 10° 39° (NE) 1,473 -1.4 -8.6°
Enters shadow 18:43:34 - 38° (NE) 2,191 -0.5 -9.0°
